Regional Weather Roundup
Issued by NWS

Home | Current Version | Previous Version | Text Only | Print | Product List | Glossary Off
Versions: 1 2 3 4 5 6 7 8 9 10 11 12 13 14 15 16 17 18 19 20 21 22 23 24 25 26 27 28 29 30 31 32 33 34 35 36 37 38 39 40 41 42 43 44 45 46 47 48 49 50

000
ASUS43 KLMK 300402
RWRKY
KENTUCKY REGIONAL WEATHER ROUNDUP
NATIONAL WEATHER SERVICE LOUISVILLE KY
1200 AM EDT SAT MAY 30 2015

NOTE "FAIR" INDICATES FEW OR NO CLOUDS BELOW 12,000 FEET
WITH NO SIGNIFICANT WEATHER AND/OR OBSTRUCTIONS TO VISIBILITY.

KYZ001>023-026-027-061>063-070>075-300500-
WESTERN AND SOUTH CENTRAL KENTUCKY

CITY           SKY/WX    TMP DP  RH WIND       PRES   REMARKS
PADUCAH        MOCLDY    74  68  81 SE5       30.02F
HENDERSON      CLEAR     72  66  83 S6        30.03S
OWENSBORO      CLEAR     73  70  91 SE7       30.06F
HOPKINSVILLE   PTCLDY    74  68  81 S7        30.06F
BOWLING GREEN  PTCLDY    72  67  84 SE3       30.09S
GLASGOW        NOT AVBL
$$

KYZ024-025-028>034-038-045-046-053-300500-
NORTH CENTRAL KENTUCKY

CITY           SKY/WX    TMP DP  RH WIND       PRES   REMARKS
LOUISVILLE/SDF PTCLDY    74  68  81 S8        30.07F
LOUISVILLE/LOU PTCLDY    74  67  78 SE5       30.08F
FORT KNOX      MOCLDY    71  67  88 S6        30.07S
$$

KYZ035>037-039>044-047>052-055>060-089>105-300500-
NORTHEAST KENTUCKY

CITY           SKY/WX    TMP DP  RH WIND       PRES   REMARKS
LEXINGTON      CLOUDY    72  64  76 S8        30.12F
COVINGTON      MOCLDY    72  67  84 S7        30.08F
FRANKFORT      MOCLDY    74  64  71 S8        30.09F
$$

KYZ054-064>069-076>088-106>120-300500-
SOUTHEAST KENTUCKY

CITY           SKY/WX    TMP DP  RH WIND       PRES   REMARKS
JACKSON        CLEAR     68  63  84 CALM      30.16F
LONDON         MOCLDY    68  63  84 CALM      30.16S
SOMERSET       NOT AVBL
MIDDLESBORO    MOCLDY    68  65  92 CALM      30.18F
MONTICELLO     MOCLDY    71  68  90 S5        30.16F
$$



USA.gov is the U.S. government's official web portal to all federal, state and local government web resources and services.